Simultaneous Nadir Overpasses (SNOs) Predictions

Prediction of SNOs between GOES-15 and METOP-A Satellite Orbit:

Table of predicted SNOs for the next 14.0 days since TLE Epoch: 1/19/2019
Index Date Time (GOES-15) GOES-15 Lat,Lon METOP-A Lat,Lon Distance(km) Time Diff (sec)
1 01/20/2019 05:48:22 0.04,-128.03 -0.09,-128.57 60.82 80
2 01/22/2019 17:43:48 -0.03,-127.90 -0.01,-128.13 26.25 80
3 01/25/2019 05:42:00 0.02,-127.85 0.05,-127.72 13.98 80
4 01/27/2019 17:42:45 -0.02,-127.70 -0.09,-127.28 47.41 80
5 01/29/2019 06:01:41 0.01,-127.69 -0.90,-131.88 477.15 80
6 01/30/2019 05:38:19 0.02,-127.64 0.19,-126.88 87.06 80
7 01/31/2019 17:57:06 -0.01,-127.52 0.85,-131.44 446.27 80
8 02/01/2019 17:39:04 -0.02,-127.48 -0.24,-126.44 118.39 80




NCC Satellite Simultaneous Nadir Overpasses (SNOs) Prediction Service
